TimeCDT,TemperatureF,Dew PointF,Humidity,Sea Level PressureIn,VisibilityMPH,Wind Direction,Wind SpeedMPH,Gust SpeedMPH,PrecipitationIn,Events,Conditions,WindDirDegrees,DateUTC
12:15 AM,44.1,35.6,72,30.01,10.0,NW,12.7,-,N/A,,Clear,320,2013-11-02 05:15:00
12:35 AM,43.0,35.6,75,30.01,10.0,NW,9.2,-,N/A,,Clear,310,2013-11-02 05:35:00
12:55 AM,42.1,36.0,79,30.02,10.0,NW,10.4,-,N/A,,Clear,310,2013-11-02 05:55:00
1:15 AM,41.7,36.1,81,30.03,10.0,WNW,9.2,-,N/A,,Clear,300,2013-11-02 06:15:00
1:35 AM,41.9,35.8,79,30.03,10.0,NW,11.5,-,N/A,,Clear,320,2013-11-02 06:35:00
1:55 AM,41.4,35.6,80,30.04,10.0,NW,11.5,-,N/A,,Clear,310,2013-11-02 06:55:00
2:15 AM,41.5,35.6,79,30.05,10.0,NW,10.4,-,N/A,,Clear,310,2013-11-02 07:15:00
2:35 AM,41.0,35.6,81,30.05,10.0,WNW,11.5,-,N/A,,Clear,300,2013-11-02 07:35:00
2:55 AM,41.0,35.2,80,30.06,10.0,WNW,13.8,-,N/A,,Clear,300,2013-11-02 07:55:00
3:15 AM,40.6,34.7,79,30.06,10.0,WNW,11.5,-,N/A,,Clear,300,2013-11-02 08:15:00
3:35 AM,40.3,34.5,80,30.07,10.0,WNW,12.7,-,N/A,,Clear,300,2013-11-02 08:35:00
3:55 AM,40.3,34.0,78,30.07,10.0,WNW,15.0,19.6,N/A,,Clear,300,2013-11-02 08:55:00
4:15 AM,40.1,33.8,78,30.08,10.0,WNW,12.7,-,N/A,,Clear,300,2013-11-02 09:15:00
4:35 AM,39.4,33.3,79,30.09,10.0,WNW,11.5,-,N/A,,Clear,300,2013-11-02 09:35:00
4:55 AM,38.7,32.9,80,30.09,10.0,WNW,11.5,-,N/A,,Clear,300,2013-11-02 09:55:00
5:15 AM,38.5,32.9,80,30.10,10.0,WNW,12.7,-,N/A,,Clear,300,2013-11-02 10:15:00
5:35 AM,38.3,32.4,79,30.11,10.0,NW,13.8,-,N/A,,Clear,310,2013-11-02 10:35:00
5:55 AM,37.8,32.0,80,30.12,10.0,NW,12.7,-,N/A,,Clear,310,2013-11-02 10:55:00
6:15 AM,37.6,32.0,80,30.12,10.0,NW,11.5,-,N/A,,Clear,310,2013-11-02 11:15:00
6:35 AM,37.4,32.0,81,30.13,10.0,NW,13.8,-,N/A,,Clear,320,2013-11-02 11:35:00
6:55 AM,36.9,32.0,83,30.13,10.0,NW,11.5,-,N/A,,Clear,320,2013-11-02 11:55:00
7:15 AM,36.7,32.0,83,30.13,10.0,NW,11.5,-,N/A,,Clear,320,2013-11-02 12:15:00
7:35 AM,36.0,32.0,86,30.14,10.0,NW,11.5,-,N/A,,Clear,310,2013-11-02 12:35:00
7:55 AM,36.1,32.0,85,30.15,10.0,WNW,9.2,-,N/A,,Clear,300,2013-11-02 12:55:00
8:15 AM,36.5,32.0,84,30.16,10.0,WNW,11.5,-,N/A,,Clear,300,2013-11-02 13:15:00
8:35 AM,37.4,32.0,81,30.16,10.0,WNW,11.5,-,N/A,,Clear,300,2013-11-02 13:35:00
8:55 AM,37.9,32.4,80,30.17,10.0,WNW,11.5,-,N/A,,Clear,290,2013-11-02 13:55:00
9:15 AM,39.4,32.7,77,30.17,10.0,WNW,11.5,-,N/A,,Clear,290,2013-11-02 14:15:00
9:35 AM,41.2,33.3,73,30.17,10.0,WNW,11.5,-,N/A,,Clear,290,2013-11-02 14:35:00
9:55 AM,42.8,33.4,70,30.19,10.0,WNW,10.4,-,N/A,,Clear,300,2013-11-02 14:55:00
10:15 AM,44.1,33.3,66,30.19,10.0,NW,8.1,-,N/A,,Clear,310,2013-11-02 15:15:00
10:35 AM,45.3,33.6,64,30.19,10.0,WNW,8.1,-,N/A,,Clear,300,2013-11-02 15:35:00
10:55 AM,46.0,33.3,61,30.19,10.0,NW,8.1,-,N/A,,Clear,320,2013-11-02 15:55:00
12:15 PM,52.3,33.6,49,30.19,10.0,WNW,4.6,-,N/A,,Clear,290,2013-11-02 17:15:00
12:35 PM,53.2,32.4,45,30.19,10.0,NNW,6.9,-,N/A,,Clear,330,2013-11-02 17:35:00
12:55 PM,54.7,32.4,43,30.19,10.0,WNW,8.1,-,N/A,,Clear,300,2013-11-02 17:55:00
1:15 PM,55.4,32.0,41,30.17,10.0,NW,6.9,-,N/A,,Clear,320,2013-11-02 18:15:00
1:35 PM,56.3,32.2,40,30.17,10.0,NW,5.8,-,N/A,,Clear,320,2013-11-02 18:35:00
1:55 PM,57.2,31.6,38,30.16,10.0,West,10.4,-,N/A,,Clear,270,2013-11-02 18:55:00
2:15 PM,57.9,30.6,35,30.15,10.0,WNW,9.2,-,N/A,,Clear,300,2013-11-02 19:15:00
2:35 PM,58.1,30.6,35,30.14,10.0,NW,9.2,-,N/A,,Clear,310,2013-11-02 19:35:00
2:55 PM,58.3,29.3,33,30.13,10.0,West,10.4,-,N/A,,Clear,280,2013-11-02 19:55:00
3:15 PM,59.0,29.7,33,30.13,10.0,WNW,11.5,-,N/A,,Clear,300,2013-11-02 20:15:00
3:35 PM,59.0,28.9,32,30.12,10.0,WNW,6.9,-,N/A,,Clear,300,2013-11-02 20:35:00
3:55 PM,59.4,28.2,31,30.12,10.0,WNW,9.2,-,N/A,,Clear,290,2013-11-02 20:55:00
4:15 PM,59.4,27.3,29,30.11,10.0,West,6.9,-,N/A,,Clear,270,2013-11-02 21:15:00
4:35 PM,59.4,27.9,30,30.11,10.0,West,4.6,-,N/A,,Clear,280,2013-11-02 21:35:00
4:55 PM,59.0,28.2,31,30.11,10.0,West,5.8,-,N/A,,Clear,280,2013-11-02 21:55:00
5:15 PM,58.6,27.9,31,30.10,10.0,West,4.6,-,N/A,,Clear,260,2013-11-02 22:15:00
5:35 PM,57.9,28.9,33,30.10,10.0,WSW,4.6,-,N/A,,Clear,240,2013-11-02 22:35:00
5:55 PM,56.3,31.5,39,30.09,10.0,SSW,3.5,-,N/A,,Clear,210,2013-11-02 22:55:00
6:15 PM,54.5,28.6,37,30.09,10.0,SSW,4.6,-,N/A,,Clear,210,2013-11-02 23:15:00
6:35 PM,51.3,30.4,45,30.09,10.0,South,3.5,-,N/A,,Clear,190,2013-11-02 23:35:00
6:55 PM,46.8,30.0,52,30.09,10.0,South,4.6,-,N/A,,Clear,170,2013-11-02 23:55:00
7:15 PM,47.1,30.7,53,30.09,10.0,South,5.8,-,N/A,,Clear,170,2013-11-03 00:15:00
7:35 PM,46.6,30.6,54,30.09,10.0,South,6.9,-,N/A,,Clear,180,2013-11-03 00:35:00
7:55 PM,43.3,30.6,61,30.09,10.0,South,6.9,-,N/A,,Clear,180,2013-11-03 00:55:00
8:15 PM,43.3,30.6,61,30.09,10.0,South,6.9,-,N/A,,Clear,170,2013-11-03 01:15:00
8:35 PM,42.8,30.4,62,30.08,10.0,South,8.1,-,N/A,,Clear,170,2013-11-03 01:35:00
8:55 PM,41.9,30.9,65,30.08,10.0,South,8.1,-,N/A,,Clear,170,2013-11-03 01:55:00
9:15 PM,40.1,30.2,68,30.08,10.0,South,6.9,-,N/A,,Clear,170,2013-11-03 02:15:00
9:35 PM,40.1,30.2,68,30.08,10.0,South,8.1,-,N/A,,Clear,170,2013-11-03 02:35:00
9:55 PM,39.6,30.2,69,30.07,10.0,SSE,8.1,-,N/A,,Clear,160,2013-11-03 02:55:00
10:15 PM,39.4,30.2,70,30.07,10.0,SSE,6.9,-,N/A,,Clear,160,2013-11-03 03:15:00
10:35 PM,38.5,30.2,72,30.07,10.0,SSE,5.8,-,N/A,,Clear,150,2013-11-03 03:35:00
10:55 PM,37.0,29.8,75,30.07,10.0,SSE,5.8,-,N/A,,Clear,160,2013-11-03 03:55:00
11:15 PM,37.9,30.2,74,30.08,10.0,South,6.9,-,N/A,,Clear,170,2013-11-03 04:15:00
11:35 PM,36.9,29.8,76,30.08,10.0,SSE,4.6,-,N/A,,Clear,150,2013-11-03 04:35:00
11:55 PM,35.8,30.2,80,30.07,10.0,SE,8.1,-,N/A,,Clear,140,2013-11-03 04:55:00